Date,TemperatureHighF,TemperatureAvgF,TemperatureLowF,DewpointHighF,DewpointAvgF,DewpointLowF,HumidityHigh,HumidityAvg,HumidityLow,PressureMaxIn,PressureMinIn,WindSpeedMaxMPH,WindSpeedAvgMPH,GustSpeedMaxMPH,PrecipitationSumIn
2013-11-1,79.1,58.6,43.7,47.4,42.3,38.6,86,58,27,30.16,30.02,3,1,4,0.00
2013-11-2,73.1,57.0,43.1,51.0,43.0,37.6,82,61,35,30.03,29.89,4,1,7,0.00
2013-11-3,65.2,51.0,38.3,40.3,32.8,28.5,79,53,26,30.06,29.93,3,1,7,0.00
2013-11-4,72.0,53.5,37.4,36.0,29.5,18.0,80,47,13,30.11,29.93,6,2,9,0.00
2013-11-5,75.7,56.0,42.1,37.8,34.0,30.3,66,46,23,30.23,30.09,5,1,5,0.00
2013-11-6,75.3,59.0,46.0,41.9,37.1,34.1,66,46,25,30.27,30.17,4,1,5,0.00
2013-11-7,74.3,58.8,48.5,45.2,38.3,33.7,81,49,25,30.18,30.07,4,1,7,0.00
2013-11-8,74.3,55.4,40.0,51.0,42.1,33.2,87,64,36,30.09,29.96,5,1,8,0.00
2013-11-9,75.0,53.7,37.5,47.8,40.0,32.2,91,64,28,30.07,29.97,4,1,7,0.00
2013-11-10,67.4,51.1,41.8,50.9,44.7,38.3,94,80,53,30.13,30.02,3,1,5,0.00
2013-11-11,66.0,52.5,41.8,49.9,44.5,37.9,95,76,55,30.21,30.09,4,1,6,0.00
2013-11-12,68.6,57.0,52.6,48.7,46.5,44.5,80,69,47,30.29,30.16,4,1,5,0.00
2013-11-14,64.3,55.9,49.1,51.8,46.1,33.6,85,70,54,30.03,29.89,2,0,4,0.00
2013-11-15,67.1,51.6,39.9,40.8,36.2,32.9,77,58,33,29.90,29.73,5,2,9,0.00
2013-11-16,68.5,52.0,38.8,46.6,40.3,34.1,88,67,40,29.93,29.78,4,1,6,0.00
2013-11-17,61.9,48.8,38.7,48.9,43.3,36.5,94,82,62,30.09,29.93,6,1,8,0.00
2013-11-18,57.3,46.0,37.7,46.5,42.2,35.3,96,87,64,30.18,30.09,3,0,5,0.00
2013-11-19,54.5,51.9,47.8,53.7,50.5,45.8,97,95,90,30.11,29.94,6,2,10,0.57
2013-11-20,57.9,54.5,49.7,55.8,53.4,48.9,97,96,90,29.93,29.84,3,1,4,0.60
2013-11-21,62.1,54.7,46.8,48.8,30.5,11.2,97,50,16,29.99,29.90,14,4,22,0.00
2013-11-22,72.4,66.1,56.4,11.5,5.6,-0.3,16,9,6,30.00,29.90,14,7,29,0.00
2013-11-23,68.4,58.6,40.8,35.1,21.0,6.5,58,28,10,30.11,29.94,15,3,17,0.00
2013-11-24,64.9,47.9,34.7,44.0,34.5,26.9,88,62,35,30.27,30.10,3,1,5,0.00
2013-11-25,64.5,47.8,35.6,44.3,39.4,32.7,94,75,47,30.34,30.26,3,1,5,0.00
2013-11-26,64.7,49.0,38.3,44.0,39.3,34.6,90,71,45,30.29,30.06,3,1,4,0.00
2013-11-27,66.7,51.2,36.5,43.5,39.0,33.3,91,65,41,30.05,29.85,6,2,8,0.00
2013-11-28,69.5,51.8,39.1,43.9,39.9,35.4,90,67,36,30.09,29.88,3,1,6,0.00
2013-11-29,68.7,52.5,42.0,46.3,41.0,36.3,83,67,40,30.23,30.09,3,1,6,0.00
2013-11-30,69.0,52.8,42.5,45.9,41.9,38.1,87,68,40,30.28,30.19,3,1,6,0.00